[[{"header":{"parameterUnit":"m.s-1","parameterCategory":1,"la1":30.2991,"la2":30.254,"lo1":-89.0895,"lo2":-89.0444,"dy":0.0017,"dx":0.0017,"nx":28,"ny":28,"refTime":"2023-10-19T03:00:00:Z","depth":0,"parameterNumber":2,"parameterNumberName":"U-component_of_WINDS"},"data":[0,0,0,0,0,0,0,0,0,0,0,0,0,0,0,0,0,0,0,0,0,0,0,0,0,0,0,0,0,0,0,0,0,0,0,0,0,0,0,0,0,0,0,0,0,0,0,0,0,0,0,0,0,0,0,0,0,0,1.4227,1.4227,0,1.4249,1.4249,1.4249,1.422,1.4219,1.4218,1.4217,1.4237,1.4238,1.424,0,0,0,0,0,0,0,0,0,0,0,0,0,1.4157,1.4159,1.4227,1.4227,1.4227,1.4248,1.4249,1.4249,1.422,1.4219,1.4217,1.4216,1.4236,1.4238,1.424,0,0,0,0,0,0,0,0,0,0,0,0,0,1.4184,1.4159,1.4227,1.4215,1.4215,1.4248,1.4249,1.4249,1.422,1.4219,1.4217,1.4216,1.4235,1.4238,1.424,1.4285,0,0,1.4247,1.4248,0,0,0,0,0,0,0,0,1.4182,1.4187,1.4217,1.4216,1.4215,1.423,1.4231,1.4261,1.4221,1.4218,1.4217,1.4215,1.4235,1.4238,1.4245,1.4286,1.4287,1.4247,1.4248,1.4249,1.425,0,0,0,0,0,0,0,1.4181,1.4185,1.4235,1.4217,1.4217,1.4208,1.421,1.4237,1.4235,1.4218,1.4216,1.4219,1.4235,1.4243,1.4245,1.4287,1.4247,1.4249,1.425,1.4251,1.4363,1.4365,0,0,0,0,0,0,1.4181,1.4184,1.4235,1.4236,1.4195,1.4211,1.4213,1.4227,1.4235,1.4235,1.422,1.4218,1.424,1.4243,1.4246,1.4297,1.4249,1.4251,1.4253,1.4362,1.4364,1.4365,0,0,0,0,0,0,1.4179,1.4185,1.4234,1.421,1.4215,1.4214,1.4229,1.4228,1.4236,1.4237,1.4236,1.4229,1.4239,1.4243,1.4275,1.4297,1.4252,1.4254,1.436,1.4362,1.4365,1.44,0,0,0,0,0,0,1.4177,1.4185,1.4203,1.421,1.4217,1.4264,1.4231,1.423,1.424,1.4237,1.4245,1.4244,1.4238,1.4272,1.4277,1.4299,1.4256,1.4358,1.4361,1.4364,1.4397,1.4404,1.4409,0,0,0,0,0,1.4175,1.4212,1.4204,1.421,1.4239,1.4265,1.4268,1.4261,1.4242,1.4259,1.426,1.4244,1.4295,1.4275,1.4281,1.4304,1.4356,1.436,1.4364,1.4394,1.4403,1.4409,0,0,0,0,0,0,1.4207,1.4213,1.4204,1.4245,1.4255,1.426,1.4281,1.427,1.4284,1.4281,1.427,1.4272,1.4306,1.4309,1.4287,1.4347,1.4322,1.4327,1.4344,1.4351,1.4357,1.4354,1.4258,0,0,0,0,0,1.422,1.4241,1.4245,1.4281,1.4286,1.4283,1.4294,1.4287,1.4297,1.43,1.4303,1.4312,1.4329,1.4341,1.4357,1.4398,1.4398,1.4417,1.4423,1.4428,1.4432,1.4451,1.4459,1.4378,1.4377,1.4377,0,0,1.4245,1.425,1.4264,1.4287,1.4294,1.4315,1.4287,1.4311,1.4325,1.4304,1.4333,1.4336,1.4345,1.4381,1.4397,1.4385,1.4454,1.4433,1.4437,1.4438,1.4455,1.4463,1.447,1.438,1.438,1.4379,0,0,1.43,1.4308,1.4337,1.4344,1.4355,1.4352,1.436,1.4366,1.4367,1.4397,1.4381,1.4398,1.4429,1.4435,1.4443,1.45,1.4485,1.4505,1.4536,1.4555,1.4561,1.4567,1.4584,1.4591,1.451,1.451,1.451,0,1.4329,1.4361,1.4353,1.4378,1.4387,1.4369,1.4397,1.4405,1.442,1.4426,1.4413,1.445,1.4455,1.4491,1.4505,1.4512,1.4518,1.4503,1.4561,1.4567,1.4572,1.4588,1.4595,1.4512,1.4512,1.4511,1.4511,0,1.4394,1.4417,1.4439,1.4454,1.4466,1.4493,1.4488,1.4501,1.4493,1.4492,1.4522,1.4527,1.4543,1.4552,1.4545,1.4586,1.4578,1.4563,1.4537,1.4582,1.4597,1.4603,1.4515,1.4514,1.4514,1.4513,0,0,1.4469,1.448,1.4488,1.4493,1.4503,1.4519,1.4545,1.456,1.457,1.4582,1.4601,1.4627,1.4613,1.4621,1.4615,1.4632,1.4673,1.4614,1.4614,1.4622,1.4716,1.4725,1.4732,1.4664,1.4666,1.4667,1.4714,0,1.4522,1.4565,1.4559,1.46,1.4619,1.4602,1.4623,1.4631,1.4631,1.4646,1.4645,1.4663,1.4644,1.4649,1.4665,1.4664,1.4691,1.4661,1.468,1.468,1.4675,1.4741,1.4751,1.4795,1.472,1.4721,1.4722,0,1.4589,1.4602,1.4645,1.465,1.4658,1.4677,1.469,1.4706,1.4714,1.4712,1.4721,1.4711,1.4734,1.471,1.4741,1.4721,1.4728,1.4729,1.473,1.4729,1.4702,1.4739,1.4809,1.4815,1.4732,1.4731,1.473,0,1.4635,1.4664,1.4693,1.4698,1.4706,1.4719,1.4723,1.473,1.4739,1.4751,1.4756,1.477,1.4777,1.4788,1.4782,1.4765,1.4812,1.4788,1.481,1.481,1.4818,1.4817,1.4888,1.4828,1.4828,1.4828,1.4828,0,1.4693,1.4719,1.4713,1.473,1.4759,1.4751,1.4779,1.478,1.4786,1.4802,1.479,1.4805,1.4797,1.4811,1.4807,1.4831,1.4835,1.4833,1.4831,1.4833,1.4833,1.4835,1.4831,1.483,1.4829,1.4829,1.4829,0,1.4748,1.4746,1.4775,1.478,1.4782,1.4802,1.4805,1.4821,1.482,1.484,1.4845,1.4842,1.4859,1.4854,1.4872,1.4869,1.4899,1.4894,1.4896,1.4894,1.4914,1.4911,1.4987,1.4995,1.4933,1.4933,1.4934,0,1.4784,1.4803,1.481,1.482,1.4824,1.4841,1.485,1.4844,1.4854,1.4864,1.4877,1.4893,1.4904,1.4931,1.493,1.4943,1.4937,1.4962,1.4938,1.4939,1.4933,1.4931,1.4932,1.4966,1.4967,1.4968,1.4968,0,1.4846,1.4843,1.4857,1.4871,1.4882,1.4893,1.4902,1.491,1.4904,1.4916,1.4932,1.4941,1.4959,1.4973,1.4985,1.4988,1.4976,1.4976,1.4981,1.4981,1.498,1.4978,1.4906,1.4974,1.4973,1.4973,1.4972,1.4972,1.489,1.4905,1.4912,1.4928,1.4934,1.4942,1.4956,1.4957,1.497,1.4984,1.498,1.4998,1.5004,1.5018,1.5023,1.5036,1.5026,1.5034,1.5036,1.5037,1.5038,1.4981,1.5039,1.5039,1.5038,1.5038,1.5038,0,1.4948,1.4952,1.4967,1.4979,1.4991,1.498,1.499,1.5,1.5016,1.5023,1.5034,1.5052,1.5066,1.5067,1.5079,1.509,1.5084,1.5093,1.509,1.5091,1.5048,1.5041,1.5097,1.5097,1.5097,1.5097,1.5097,1.5097,1.498,1.5005,1.5003,1.503,1.5033,1.5051,1.5057,1.5064,1.5069,1.509,1.5101,1.5102,1.5105,1.5118,1.513,1.513,1.5133,1.5143,1.5141,1.51,1.5094,1.5088,1.5082,1.5145,1.5145,1.5182,1.5182,1.5183]},{"header":{"parameterUnit":"m.s-1","parameterCategory":1,"la1":30.2991,"la2":30.254,"lo1":-89.0895,"lo2":-89.0444,"dy":0.0017,"dx":0.0017,"nx":28,"ny":28,"refTime":"2023-10-19T03:00:00:Z","depth":0,"parameterNumber":3,"parameterNumberName":"V-component_of_WINDS"},"data":[0,0,0,0,0,0,0,0,0,0,0,0,0,0,0,0,0,0,0,0,0,0,0,0,0,0,0,0,0,0,0,0,0,0,0,0,0,0,0,0,0,0,0,0,0,0,0,0,0,0,0,0,0,0,0,0,0,0,1.8359,1.8361,0,1.8564,1.8566,1.8568,1.8601,1.8599,1.8597,1.8595,1.8804,1.8811,1.8818,0,0,0,0,0,0,0,0,0,0,0,0,0,1.7993,1.8,1.8359,1.8361,1.8364,1.8563,1.8566,1.8569,1.8601,1.8599,1.8597,1.8595,1.8801,1.881,1.8818,0,0,0,0,0,0,0,0,0,0,0,0,0,1.817,1.8002,1.8358,1.8404,1.841,1.8563,1.8566,1.857,1.8601,1.8599,1.8596,1.8593,1.8798,1.8809,1.882,1.8941,0,0,1.8853,1.8857,0,0,0,0,0,0,0,0,1.816,1.8184,1.8395,1.8401,1.8408,1.8554,1.8514,1.8694,1.8602,1.8529,1.8595,1.8592,1.8723,1.874,1.8784,1.895,1.8959,1.8854,1.886,1.8865,1.8868,0,0,0,0,0,0,0,1.8148,1.8175,1.844,1.8398,1.8406,1.8413,1.8436,1.8548,1.8638,1.8535,1.8538,1.8562,1.8726,1.8773,1.8789,1.8962,1.8853,1.8863,1.887,1.8874,1.9235,1.9238,0,0,0,0,0,0,1.8127,1.8164,1.8433,1.8446,1.8275,1.8422,1.8447,1.851,1.8637,1.8654,1.8564,1.8562,1.8756,1.8776,1.8796,1.8945,1.8865,1.8875,1.8881,1.9232,1.9236,1.9239,0,0,0,0,0,0,1.812,1.8151,1.8425,1.8306,1.8342,1.8431,1.8502,1.8515,1.8563,1.8659,1.8675,1.8596,1.8755,1.8781,1.8904,1.8953,1.888,1.889,1.9229,1.9234,1.9238,1.9243,0,0,0,0,0,0,1.8109,1.8148,1.8196,1.8307,1.8348,1.853,1.8505,1.8521,1.8582,1.8582,1.8693,1.8709,1.8755,1.8888,1.8915,1.8966,1.8898,1.9225,1.9231,1.9236,1.9239,1.9248,1.9255,0,0,0,0,0,1.8096,1.819,1.8198,1.8231,1.841,1.8533,1.8556,1.8607,1.8586,1.8634,1.8695,1.8706,1.8943,1.89,1.8931,1.8986,1.9222,1.9229,1.9236,1.9236,1.9246,1.9255,0,0,0,0,0,0,1.8083,1.8205,1.8216,1.8349,1.843,1.8538,1.8601,1.8617,1.8706,1.8702,1.8761,1.8786,1.8905,1.8958,1.8908,1.9108,1.908,1.9094,1.907,1.908,1.9088,1.9072,1.8907,0,0,0,0,0,1.8095,1.8186,1.8288,1.8395,1.8436,1.8511,1.8567,1.8599,1.8685,1.872,1.879,1.8873,1.8966,1.9026,1.9117,1.9247,1.927,1.93,1.9307,1.9313,1.9324,1.9394,1.9408,1.9262,1.9262,1.9262,0,0,1.8123,1.8201,1.8255,1.8395,1.8462,1.8553,1.854,1.8638,1.8706,1.8735,1.8855,1.8909,1.9005,1.9131,1.919,1.9179,1.9369,1.9322,1.9326,1.9334,1.9403,1.9416,1.9429,1.9267,1.9266,1.9266,0,0,1.8219,1.8287,1.8383,1.845,1.8551,1.86,1.8622,1.8728,1.8765,1.8886,1.8909,1.899,1.9149,1.9216,1.9271,1.9389,1.9401,1.9417,1.9457,1.9525,1.9536,1.9547,1.9587,1.9601,1.9427,1.9427,1.9427,0,1.824,1.8379,1.8431,1.8527,1.8587,1.8616,1.8713,1.8775,1.89,1.894,1.8926,1.9125,1.9192,1.9333,1.9361,1.9405,1.9432,1.9404,1.953,1.9541,1.9552,1.9591,1.9606,1.9428,1.9428,1.9428,1.9428,0,1.8399,1.8495,1.856,1.8679,1.8747,1.8843,1.8908,1.8969,1.8994,1.9044,1.9166,1.9247,1.9354,1.9389,1.9415,1.9534,1.9523,1.9519,1.9492,1.9566,1.9604,1.9619,1.943,1.9429,1.9429,1.9429,0,0,1.8495,1.8639,1.8662,1.8715,1.8827,1.8902,1.8998,1.9102,1.9153,1.9238,1.9319,1.9452,1.9448,1.951,1.9543,1.9603,1.9688,1.9591,1.9594,1.9605,1.9821,1.9823,1.984,1.9697,1.97,1.9702,1.9812,0,1.8603,1.8776,1.8823,1.8969,1.9057,1.9085,1.9168,1.9245,1.9293,1.9374,1.9428,1.952,1.9509,1.9546,1.9606,1.9665,1.9732,1.9658,1.9771,1.9775,1.9746,1.986,1.9863,1.9963,1.9828,1.983,1.9832,0,1.8753,1.8839,1.8994,1.9091,1.913,1.9205,1.9302,1.938,1.9466,1.9497,1.9565,1.9592,1.9692,1.9659,1.9796,1.9744,1.9793,1.9829,1.9834,1.9846,1.9808,1.9874,1.9997,2.0011,1.9856,1.9854,1.9852,0,1.8805,1.896,1.9072,1.9117,1.9235,1.9286,1.9337,1.9421,1.9479,1.9565,1.9603,1.9698,1.9751,1.9823,1.9874,1.9846,2.0006,1.9978,2.0033,2.0032,2.0066,2.0063,2.0197,2.0099,2.0098,2.0098,2.0098,0,1.8921,1.9014,1.9097,1.9166,1.9269,1.9323,1.9424,1.9476,1.955,1.9628,1.9658,1.973,1.9794,1.9875,1.9915,2.0021,2.0045,2.0072,2.0081,2.0069,2.0065,2.0102,2.0096,2.0102,2.0101,2.01,2.01,0,1.8998,1.9057,1.918,1.928,1.9308,1.938,1.9465,1.9532,1.958,1.9679,1.9705,1.9781,1.9877,1.9935,2.0058,2.0085,2.0201,2.0208,2.0172,2.0176,2.0228,2.0222,2.0389,2.0413,2.0299,2.03,2.0301,0,1.9068,1.9139,1.9247,1.9301,1.9352,1.944,1.9499,1.9553,1.9614,1.9716,1.977,1.9868,1.9949,2.0101,2.0167,2.0259,2.0269,2.0321,2.0283,2.0267,2.0268,2.0263,2.0269,2.0327,2.0328,2.0329,2.033,0,1.9185,1.921,1.9294,1.9389,1.9458,1.9535,1.9612,1.9655,1.9721,1.9787,1.9886,1.9948,2.0072,2.0168,2.0266,2.0318,2.0334,2.0341,2.0358,2.0346,2.0322,2.0334,2.0188,2.0337,2.0336,2.0336,2.0335,2.0335,1.926,1.9324,1.9408,1.9501,1.9564,1.9634,1.9701,1.9757,1.984,1.9945,1.9971,2.0074,2.0156,2.0289,2.0342,2.0422,2.0414,2.044,2.0447,2.0452,2.0452,2.0309,2.0441,2.044,2.044,2.044,2.044,0,1.9377,1.9432,1.9517,1.9622,1.9694,1.9703,1.9787,1.9847,1.9937,2.0012,2.0091,2.0203,2.0295,2.0367,2.0462,2.0512,2.0522,2.0535,2.0531,2.0543,2.0455,2.043,2.0525,2.0525,2.0525,2.0525,2.0525,2.0525,1.9447,1.9555,1.9589,1.9728,1.9783,1.9883,1.993,1.9995,2.0055,2.0178,2.0255,2.0301,2.0374,2.0474,2.0559,2.0577,2.061,2.0622,2.0642,2.0558,2.0549,2.054,2.0517,2.0629,2.0629,2.0723,2.0723,2.0724]}]]